Flag for Canada Weather past 2 weeks in Longueuil, Quebec, Canada

Now
20 °F

Cold.


Feels Like: 11 °F
Forecast: 3 / 19 °F
Wind: 7 mph from Southwest

Location: Mc Tavish

Current Time: Feb 28, 2015 at 2:50:57 PM

Latest Report: Feb 28, 2015 at 2:00 PM


Visibility: N/A

Pressure: 30.66 "Hg

Humidity: 54%

Dew point: 5 °F

Location of LongueuilLocation

Historic Weather in Longueuil — Graph

°F

Longueuil temperature yesterday

Maximum temperature yesterday: 17 °F (at 4:00 PM)
Minimum temperature yesterday: 0 °F (at 6:00 AM)
Average temperature yesterday: 8 °F

Past Weeks' High & Low Weather Summary

 TemperatureHumidityPressure
High26 °F (Feb 22, 7:00 PM)98% (Feb 21, 11:00 PM)30.71 "Hg (Feb 21, 11:00 PM)
Low-9 °F (Feb 16, 7:00 AM)36% (Feb 27, 4:00 PM)29.62 "Hg (Feb 19, 1:00 PM)
Average6 °F62%30.04 "Hg
* Reported Feb 13 1:00 PM — Feb 28 1:00 PM, Longueuil, Weather by CustomWeather, © 2015

Note: Actual official high and low records may vary slightly from our data, if they occured in-between our weather recording intervals... More about our weather records

Advertising

Longueuil weather history for previous 24 hours

 ConditionsComfort  
Time TempWeatherWind HumidityBarometerVisibility
1:00 PM
Sat, Feb 28
18 °FCold.9 mph58%30.68 "HgN/A
12:00 PM16 °FCold.6 mph58%30.71 "HgN/A
11:00 AM12 °FCold.6 mph62%30.71 "HgN/A
10:00 AM10 °FFrigid.7 mph65%30.71 "HgN/A
9:00 AM8 °FFrigid.7 mph66%30.70 "HgN/A
8:00 AM6 °FFrigid.7 mph67%30.69 "HgN/A
7:00 AM5 °FFrigid.5 mph68%30.66 "HgN/A
6:00 AM5 °FFrigid.5 mph67%30.64 "HgN/A
5:00 AM6 °FFrigid.6 mph65%30.63 "HgN/A
4:00 AM7 °FFrigid.5 mph64%30.60 "HgN/A
3:00 AM7 °FFrigid.6 mph62%30.58 "HgN/A
2:00 AM8 °FFrigid.5 mph62%30.57 "HgN/A
1:00 AM9 °FFrigid.5 mph62%30.54 "HgN/A
12:00 AM10 °FFrigid.5 mph62%30.52 "HgN/A
11:00 PM
Fri, Feb 27
10 °FFrigid.6 mph61%30.50 "HgN/A
10:00 PM11 °FCold.6 mph54%30.49 "HgN/A
9:00 PM11 °FCold.6 mph46%30.47 "HgN/A
8:00 PM13 °FCold.6 mph49%30.45 "HgN/A
7:00 PM13 °FCold.3 mph45%30.43 "HgN/A
6:00 PM13 °FCold.3 mph44%30.42 "HgN/A
5:00 PM14 °FCold.5 mph38%30.40 "HgN/A
4:00 PM17 °FCold.6 mph36%30.39 "HgN/A
3:00 PM14 °FCold.8 mph41%30.37 "HgN/A
2:00 PM14 °FCold.8 mph47%30.37 "HgN/A
Weather by CustomWeather, © 2015

See weather overviewHow to use our weather pages